EW9798 Weather Reports


Display with metric or nautical units.
time (UTC)temp
F
wind
direction
speed
MPH
gust
MPH
rain 1hr
in
rain 24hr
in
rain mn
in
humidity
%
barometer
mb
20260503180105 72 332 1.0 5.0 0.00 0.00 0.00 53 1014.8
20260503174530 71 298 0.0 2.0 0.00 0.00 0.00 54 1014.9
20260503173030 70 316 0.0 4.0 0.00 0.00 0.00 56 1015.1
20260503171530 68 10 0.0 4.0 0.00 0.00 0.00 59 1015.2
20260503120105 48 135 1.0 3.0 0.00 0.00 0.00 95 1015.6
20260503100109 50 135 2.0 5.0 0.00 0.00 0.00 92 1015.5
20260503081529 54 157 0.0 0.0 0.00 0.00 0.00 89 1015.3
20260503071529 55 135 0.0 4.0 0.00 0.00 0.00 85 1015.4
20260503054531 57 145 1.0 3.0 0.00 0.00 0.00 80 1015.3
20260503053034 58 135 1.0 4.0 0.00 0.00 0.00 78 1015.2
20260503050028 59 172 2.0 5.0 0.00 0.00 0.00 77 1015.1
20260503044535 59 132 3.0 4.0 0.00 0.00 0.00 76 1014.9
20260503043032 60 113 4.0 5.0 0.00 0.00 0.00 76 1014.8
20260503041531 61 106 2.0 4.0 0.00 0.00 0.00 76 1014.5
20260503040035 63 26 0.0 4.0 0.00 0.00 0.00 74 1014.3
20260503034531 64 127 4.0 6.0 0.00 0.00 0.00 73 1013.8
20260503033037 65 125 4.0 6.0 0.00 0.00 0.00 73 1013.6
20260503024610 69 66 1.0 3.0 0.00 0.00 0.00 70 1012.8
20260503023031 70 96 0.0 2.0 0.00 0.00 0.00 69 1012.7
20260503021528 72 112 2.0 4.0 0.00 0.00 0.00 67 1012.6
20260503020109 76 360 0.0 0.0 0.00 0.00 0.00 62 1012.4
20260503013032 77 360 0.0 0.0 0.00 0.00 0.00 60 1012.4
20260503011532 77 360 0.0 2.0 0.00 0.00 0.00 56 1012.4
20260503010034 78 360 0.0 2.0 0.00 0.00 0.00 52 1012.3
20260503004537 78 3 2.0 6.0 0.00 0.00 0.00 51 1012.3
20260503003113 79 360 4.0 7.0 0.00 0.00 0.00 49 1012.2
20260503001531 81 288 2.0 5.0 0.00 0.00 0.00 43 1012.3
20260502234532 81 295 1.0 6.0 0.00 0.00 0.00 38 1012.7
20260502233032 82 236 1.0 5.0 0.00 0.00 0.00 38 1012.9
20260502231530 80 266 0.0 3.0 0.00 0.00 0.00 41 1013.0
20260502230034 80 304 1.0 4.0 0.00 0.00 0.00 43 1013.2
20260502224607 80 253 2.0 7.0 0.00 0.00 0.00 46 1013.4
20260502223027 79 294 1.0 5.0 0.00 0.00 0.00 49 1013.6
20260502221532 77 286 1.0 5.0 0.00 0.00 0.00 53 1013.9
20260502220031 75 334 2.0 6.0 0.00 0.00 0.00 56 1014.2
20260502214532 74 329 0.0 6.0 0.00 0.00 0.00 57 1014.4
20260502213029 74 273 1.0 6.0 0.00 0.00 0.00 57 1014.6
20260502211608 74 284 0.0 2.0 0.00 0.00 0.00 56 1014.9
20260502204528 72 303 1.0 4.0 0.00 0.00 0.00 60 1015.1
20260502201607 66 341 0.0 4.0 0.00 0.00 0.00 70 1015.5
20260502200029 64 140 1.0 3.0 0.00 0.00 0.00 73 1015.8
20260502194532 63 303 4.0 7.0 0.00 0.00 0.00 74 1015.7
20260502191531 65 334 3.0 6.0 0.00 0.00 0.00 69 1016.3
20260502190030 67 329 3.0 7.0 0.00 0.00 0.00 70 1016.6
20260502184607 65 332 4.0 8.0 0.00 0.00 0.00 72 1016.7
20260502183031 64 20 3.0 5.0 0.00 0.00 0.00 73 1016.9
20260502181530 63 352 1.0 4.0 0.00 0.00 0.00 74 1016.8